Weather in Elounda

Greece     35°15′58″N   25°42′41″E
temp.,
°C
wind,
m/s
gust,
m/s
humid.,
%
clouds,
%
prec.,
mm/h
press.,
hPa
HPBL,
m
17 april, sat
sat1700:00+17s71059100 0.1 1011164
03:00+17s6849100 0.1 1011101
06:00+17s7957100 0.0 1010135
09:00+19s10136199 0.0 1009273
12:00+23s101544100 0.0 1010459
15:00+22sse91151100 0.0 1010386
18:00+23ssw5647100 0.0 1010119
21:00+21s6643100 0.0 101152
18 april, sun
sun1800:00+21sse4548100 0.0 101242
03:00+21sse3445100 0.0 101228
06:00+20wsw4448100 0.0 101340
09:00+22se1247100 0.0 101487
12:00+23ene124677 0.0 1014241
15:00+22nw7759100 0.0 1014345
18:00+20nnw2463100 0.0 1014208
21:00+19n3468100 0.0 101549
19 april, mon
mon1900:00+18nnw2269100 0.0 101529
03:00+18nne1272100 0.0 101325
06:00+17ne2273100 0.0 101226
09:00+18nw457198 0.0 1012190
12:00+19nnw457327 0.0 1012321
15:00+18nw577036 0.0 1012497
18:00+16nw687198 0.0 1013677
21:00+14wnw6971100 0.0 1014555
20 april, tue
tue2000:00+14wnw81170100 0.0 1014566
03:00+13w57730 0.0 1014351
06:00+12w58670 0.0 1014313
09:00+15wnw35450 0.0 1016470
12:00+17nnw34460 0.0 1016706
15:00+18nw45574 0.0 1017829
18:00+16wnw456124 0.0 1017686
21:00+14wnw33690 0.0 1018319
21 april, wed
wed2100:00+13w22740 0.0 1019172
03:00+13w22762 0.0 1018149
06:00+12w33740 0.0 1018200
09:00+15wnw23580 0.0 1019411
12:00+17nnw34525 0.0 1020740
15:00+17nnw236010 0.0 1020690
18:00+17nnw336342 0.0 1019495
21:00+14wnw22725 0.0 1021154